STARLINK-1642, 46154

Orbit data source: Space-Track

STARLINK-1642, 46154 is a payload satellite owned by SpaceX/Seattle (US) in LEO that was launched on Tue, 18 Aug 2020 UTC via an FALCON 9 launch vehicle from the Air Force Eastern Test Range (AFETR). Payload-class satellites include a variety of spacecraft equipped with specific instruments for various scientific and technological missions. These include communications satellites like Starlink; space stations such as the ISS; scientific satellites like the Hubble; Earth observation satellites from companies like Planet Labs, Umbra, and HawkEye 360; GPS; miniature CubeSats for education and research; and military/defense satellites.

Loading next visibility...
Identifier
46154, 2020-057AP
Orbit
LEO
Country
Flag of USUS
Related business
Manufacturer
SpaceX/Seattle
Mission
Partially operational Commercial Communications
Bus & Motor
STARLINK, Unknown motor
Mass
260 kg wet, ~248 kg dry
Launch date (UTC)
2020-08-18 (5 years ago)
Launch vehicle
FALCON 9
Launch site
Air Force Eastern Test Range (AFETR)
Object type
Payload
Rocket body
Debris
Shape & HBR
Box + 1 Pan, 10.1 m
Radar Cross Section
13.562 m², Large (>1 m²)

Expand to show TLE details & history
Last TLE update: 4 hours ago

TLE from 4 hours ago
0 STARLINK-1642
1 46154U 20057AP  25310.33335648  .00235188  00000-0  44207-2 0  9996
2 46154  53.0489 122.1726 0010892 141.2030 248.3160 15.47171298  5917
Epoch: 2025-11-06T08:00Z
TLE epoch observation values (Epoch: 2025-11-06T08:00:01.999Z)
Latitude
23.1605°
Longitude
-24.96619°
Altitude
428.51 km
Speed
7.656 km/s
True Right ascension
09h 23m 20s
True Declination
23° 01' 49"
Sunlit
Object was in daylight at epoch
Visualization orbit readout
Latitude
Unknown
Longitude
Unknown
Altitude
Unknown
Speed
Unknown
Apparent Right ascension
Unknown
Apparent Declination
Unknown
Sunlit
N/A
Visualization observer readout
Local Sidereal Time
07:41:09
Azimuth
Unknown
Elevation
Unknown
Doppler factor
Unknown
Orbital elements
Apogee altitude
432.692 km
Perigee altitude
417.872 km
Semi-major axis
6,803.419 km
Eccentricity
0.00109
Inclination
53.0489°
RAAN
122.1726°
Arg. of periapsis
141.203°
True anomaly
248.20008°
Mean anomaly
248.316°
Eccentric anomaly
248.25803°
Mean motion
3.8677 °/min
Orbital period
93.08 mins
BSTAR
0.0044207
Loading maneuver chart data...
Computing Atmospheric mass density...
Loading historical data...
Loading historical data...
Loading historical data...
Loading historical data...
Loading historical data...
Loading historical data...
Loading historical data...

Documentation

Showing up to 5 results
|